Regional Weather Roundup
Issued by NWS

Home | Current Version | Previous Version | Graphics & Text | Print | Product List | Glossary On
Versions: 1 2 3 4 5 6 7 8 9 10 11 12 13 14 15 16 17 18 19 20 21 22 23 24 25 26 27 28 29 30 31 32 33 34 35 36 37 38 39 40 41 42 43 44 45 46 47 48 49 50
556
ASUS43 KLMK 210510
RWRKY
KENTUCKY REGIONAL WEATHER ROUNDUP
NATIONAL WEATHER SERVICE LOUISVILLE KY
1200 AM EST TUE NOV 21 2017

NOTE "FAIR" INDICATES FEW OR NO CLOUDS BELOW 12,000 FEET
WITH NO SIGNIFICANT WEATHER AND/OR OBSTRUCTIONS TO VISIBILITY.

KYZ001>023-026-027-061>063-070>075-210600-
WESTERN AND SOUTH CENTRAL KENTUCKY

CITY           SKY/WX    TMP DP  RH WIND       PRES   REMARKS
PADUCAH        CLEAR     43  23  45 S7        29.99F
HENDERSON      CLEAR     41  26  55 S9        29.99F
OWENSBORO      CLEAR     37  26  64 S7        30.01F WCI  32
HOPKINSVILLE   CLEAR     42  22  45 S7        30.04F
BOWLING GREEN  CLEAR     30  25  81 CALM      30.06F
GLASGOW        CLEAR     37  24  58 S5        30.07S WCI  34
$$

KYZ024-025-028>034-038-045-046-053-210600-
NORTH CENTRAL KENTUCKY

CITY           SKY/WX    TMP DP  RH WIND       PRES   REMARKS
LOUISVILLE/SDF PTCLDY    44  23  43 SE7       30.01F
LOUISVILLE/LOU CLEAR     38  25  59 S7        30.02F WCI  33
FORT KNOX      CLEAR     39  23  53 S9        30.00F HAZE    WCI  33
$$

KYZ035>037-039>044-047>052-055>060-089>105-210600-
NORTHEAST KENTUCKY

CITY           SKY/WX    TMP DP  RH WIND       PRES   REMARKS
LEXINGTON      CLEAR     36  24  62 S10       30.03F WCI  28
COVINGTON      CLEAR     38  26  62 S9        29.98F WCI  31
FRANKFORT      CLEAR     32  22  66 S3        30.01F
$$

KYZ054-064>069-076>088-106>120-210600-
SOUTHEAST KENTUCKY

CITY           SKY/WX    TMP DP  RH WIND       PRES   REMARKS
JACKSON        CLEAR     41  21  44 SW5       30.07S
LONDON         CLEAR     33  25  72 CALM      30.09S
SOMERSET       CLEAR     37  27  65 CALM      30.10F
MIDDLESBORO    CLOUDY    29  27  90 CALM      30.13S
MONTICELLO     CLEAR     42  28  57 VRB3      30.10F
$$





USA.gov is the U.S. government's official web portal to all federal, state and local government web resources and services.